K9JWM Weather Reports


Display with metric or nautical units.
time (UTC)temp
F
wind
direction
speed
MPH
gust
MPH
rain 1hr
in
rain 24hr
in
rain mn
in
humidity
%
barometer
mb
20260903202006 81 171 1.0 3.0 0.00 0.00 0.00 66 1009.8
20260903201550 80 153 1.0 1.0 0.00 0.00 0.00 66 1009.9
20260903201017 80 153 0.0 2.0 0.00 0.00 0.00 67 1010.2
20260903200119 80 155 0.0 1.0 0.00 0.00 0.00 69 1010.4
20260903200005 80 155 1.0 2.0 0.00 0.00 0.00 69 1010.4
20260903195005 79 133 1.0 5.0 0.00 0.00 0.00 68 1010.4
20260903194559 79 150 0.0 1.0 0.00 0.00 0.00 69 1010.3
20260903194005 80 150 2.0 3.0 0.00 0.00 0.00 68 1010.3
20260903193055 79 245 0.0 2.0 0.00 0.00 0.00 69 1010.3
20260903193005 79 245 0.0 3.0 0.00 0.00 0.00 69 1010.3
20260903192005 79 245 1.0 3.0 0.00 0.00 0.00 69 1010.2
20260903191549 80 239 3.0 3.0 0.00 0.00 0.00 67 1010.2
20260903191005 81 84 1.0 3.0 0.00 0.00 0.00 71 1010.3
20260903190058 78 147 1.0 2.0 0.00 0.00 0.00 72 1010.4
20260903190005 78 147 1.0 3.0 0.00 0.00 0.00 72 1010.4
20260903184550 78 131 1.0 3.0 0.00 0.00 0.00 74 1010.5
20260903184005 78 184 1.0 5.0 0.00 0.00 0.00 74 1010.6
20260903183049 79 123 0.0 2.0 0.00 0.00 0.00 73 1010.5
20260903183012 79 123 1.0 6.0 0.00 0.00 0.00 73 1010.5
20260903182005 79 121 1.0 6.0 0.00 0.00 0.00 71 1010.5
20260903181550 79 114 1.0 5.0 0.00 0.00 0.00 71 1010.5
20260903181017 80 98 2.0 10.0 0.00 0.00 0.00 69 1010.5
20260903180050 79 86 1.0 5.0 0.00 0.00 0.00 72 1010.9
20260903180005 79 86 2.0 5.0 0.00 0.00 0.00 72 1010.9
20260903175005 77 103 0.0 3.0 0.00 0.00 0.00 75 1010.9
20260903174549 77 84 0.0 2.0 0.00 0.00 0.00 75 1011.1
20260903174005 76 84 1.0 5.0 0.00 0.00 0.00 75 1011.1
20260903173050 76 128 2.0 5.0 0.00 0.00 0.00 75 1011.2
20260903173005 76 128 2.0 6.0 0.00 0.00 0.00 75 1011.2
20260903172006 76 108 1.0 7.0 0.00 0.00 0.00 74 1011.2
20260903171549 76 134 1.0 1.0 0.00 0.00 0.00 75 1011.3
20260903170050 75 58 1.0 2.0 0.00 0.00 0.00 73 1011.4
20260903170005 75 58 1.0 7.0 0.00 0.00 0.00 73 1011.4
20260903165005 75 119 2.0 7.0 0.00 0.00 0.00 75 1011.4
20260903164549 74 127 2.0 3.0 0.00 0.00 0.00 76 1011.3
20260903164005 74 127 2.0 5.0 0.00 0.00 0.00 76 1011.4
20260903163050 73 124 0.0 1.0 0.00 0.00 0.00 76 1011.4
20260903163005 73 124 1.0 6.0 0.00 0.00 0.00 76 1011.4
20260903162005 72 120 3.0 7.0 0.00 0.00 0.00 79 1011.6
20260903161550 71 140 1.0 3.0 0.00 0.00 0.00 79 1011.5
20260903161005 71 110 1.0 3.0 0.00 0.00 0.00 81 1011.5
20260903160049 70 67 2.0 5.0 0.00 0.00 0.00 81 1011.6
20260903160005 70 67 2.0 7.0 0.00 0.00 0.00 81 1011.6
20260903155008 70 85 3.0 6.0 0.00 0.00 0.00 81 1011.9
20260903154550 69 120 0.0 3.0 0.00 0.00 0.00 82 1011.8
20260903154012 69 106 3.0 7.0 0.00 0.00 0.00 82 1011.8
20260903153049 68 79 1.0 2.0 0.00 0.00 0.00 83 1011.7
20260903153009 68 79 1.0 3.0 0.00 0.00 0.00 83 1011.7
20260903152008 67 73 2.0 9.0 0.00 0.00 0.00 84 1011.8
20260903151549 67 72 2.0 2.0 0.00 0.00 0.00 84 1011.8
20260903151005 66 118 0.0 9.0 0.00 0.00 0.00 86 1011.9
20260903150050 65 124 1.0 3.0 0.00 0.00 0.00 85 1012.2
20260903145005 64 177 0.0 2.0 0.00 0.00 0.00 86 1012.4
20260903144549 65 211 0.0 0.0 0.00 0.00 0.00 85 1012.5
20260903144012 65 212 1.0 2.0 0.00 0.00 0.00 84 1012.4
20260903143050 64 212 0.0 0.0 0.00 0.00 0.00 85 1012.2
20260903143005 64 212 0.0 0.0 0.00 0.00 0.00 85 1012.2
20260903142008 64 212 0.0 1.0 0.00 0.00 0.00 84 1012.3
20260903141553 64 212 0.0 0.0 0.00 0.00 0.00 84 1012.2
20260903140050 64 110 0.0 0.0 0.00 0.00 0.00 83 1012.4
20260903140005 64 110 0.0 2.0 0.00 0.00 0.00 83 1012.4
20260903134550 64 96 0.0 2.0 0.00 0.00 0.00 82 1012.2
20260903133048 64 82 1.0 1.0 0.00 0.00 0.00 82 1012.2
20260903133005 64 82 1.0 5.0 0.00 0.00 0.00 82 1012.2
20260903132005 64 111 0.0 2.0 0.00 0.00 0.00 82 1012.3
20260903131555 64 111 0.0 2.0 0.00 0.00 0.00 83 1012.3
20260903130049 63 105 0.0 2.0 0.00 0.00 0.00 83 1012.3
20260903130005 63 105 0.0 2.0 0.00 0.00 0.00 83 1012.3
20260903124553 62 106 1.0 2.0 0.00 0.00 0.00 84 1012.2
20260903124005 62 80 1.0 6.0 0.00 0.00 0.00 84 1012.1
20260903123050 61 84 0.0 2.0 0.00 0.00 0.00 85 1012.1
20260903123012 61 84 0.0 3.0 0.00 0.00 0.00 85 1012.1
20260903122012 61 93 0.0 3.0 0.00 0.00 0.00 85 1012.1
20260903121549 60 99 0.0 2.0 0.00 0.00 0.00 86 1012.1
20260903121005 60 101 1.0 5.0 0.00 0.00 0.00 86 1012.2
20260903120049 60 98 0.0 2.0 0.00 0.00 0.00 85 1012.0
20260903120004 60 98 0.0 3.0 0.00 0.00 0.00 85 1012.0
20260903115005 60 102 0.0 3.0 0.00 0.00 0.00 85 1012.0
20260903114549 60 103 0.0 2.0 0.00 0.00 0.00 86 1011.9
20260903114012 60 103 0.0 2.0 0.00 0.00 0.00 86 1011.9
20260903113048 59 105 0.0 0.0 0.00 0.00 0.00 87 1012.0
20260903113012 59 105 1.0 3.0 0.00 0.00 0.00 87 1012.0
20260903112011 59 109 0.0 2.0 0.00 0.00 0.00 86 1011.9
20260903111548 59 109 0.0 2.0 0.00 0.00 0.00 86 1011.8
20260903111005 59 103 0.0 1.0 0.00 0.00 0.00 86 1011.8
20260903110049 59 103 0.0 1.0 0.00 0.00 0.00 86 1011.7
20260903105005 58 103 0.0 2.0 0.00 0.00 0.00 85 1011.7
20260903104548 58 102 0.0 2.0 0.00 0.00 0.00 85 1011.6
20260903104012 58 88 0.0 2.0 0.00 0.00 0.00 84 1011.4
20260903103048 59 86 0.0 2.0 0.00 0.00 0.00 83 1011.5
20260903103008 59 86 0.0 2.0 0.00 0.00 0.00 83 1011.5
20260903102004 59 86 0.0 2.0 0.00 0.00 0.00 83 1011.7
20260903101549 60 86 0.0 0.0 0.00 0.00 0.00 83 1011.8
20260903101005 60 86 0.0 2.0 0.00 0.00 0.00 83 1011.9
20260903100048 60 86 0.0 2.0 0.00 0.00 0.00 83 1011.8
20260903100005 60 86 0.0 2.0 0.00 0.00 0.00 83 1011.8
20260903095005 60 86 0.0 2.0 0.00 0.00 0.00 82 1011.8
20260903094559 60 86 0.0 0.0 0.00 0.00 0.00 82 1011.8
20260903094005 60 81 0.0 2.0 0.00 0.00 0.00 82 1011.7
20260903093049 60 74 0.0 0.0 0.00 0.00 0.00 82 1011.6
20260903093005 60 74 0.0 6.0 0.00 0.00 0.00 82 1011.6
20260903092004 60 101 0.0 3.0 0.00 0.00 0.00 82 1011.3
20260903091550 59 102 0.0 2.0 0.00 0.00 0.00 82 1011.3
20260903091004 60 102 0.0 2.0 0.00 0.00 0.00 82 1011.3
20260903090048 60 102 0.0 0.0 0.00 0.00 0.00 81 1011.3
20260903090011 60 102 0.0 2.0 0.00 0.00 0.00 81 1011.3
20260903085005 60 102 0.0 0.0 0.00 0.00 0.00 81 1011.4
20260903084549 60 102 0.0 0.0 0.00 0.00 0.00 81 1011.6
20260903083049 61 102 0.0 1.0 0.00 0.00 0.00 81 1011.6
20260903083005 61 102 0.0 2.0 0.00 0.00 0.00 81 1011.6
20260903082004 61 103 0.0 1.0 0.00 0.00 0.00 80 1011.7
20260903081549 61 103 0.0 1.0 0.00 0.00 0.00 80 1011.6
20260903081005 61 103 0.0 2.0 0.00 0.00 0.00 80 1011.7
20260903080048 61 103 0.0 0.0 0.00 0.00 0.00 79 1011.8
20260903080005 61 103 0.0 1.0 0.00 0.00 0.00 79 1011.8
20260903075005 62 103 0.0 2.0 0.00 0.00 0.00 79 1011.7
20260903074552 62 103 0.0 1.0 0.00 0.00 0.00 79 1011.7
20260903074005 62 103 0.0 1.0 0.00 0.00 0.00 79 1011.7
20260903073049 62 102 1.0 3.0 0.00 0.00 0.00 79 1011.8
20260903073005 62 102 1.0 3.0 0.00 0.00 0.00 79 1011.8
20260903072005 62 86 0.0 3.0 0.00 0.00 0.00 79 1011.8
20260903071554 62 80 0.0 1.0 0.00 0.00 0.00 79 1011.8
20260903070050 62 84 0.0 2.0 0.00 0.00 0.00 79 1011.9
20260903070004 62 84 0.0 2.0 0.00 0.00 0.00 79 1011.9
20260903065005 63 84 0.0 2.0 0.00 0.00 0.00 77 1012.1
20260903064549 63 84 0.0 1.0 0.00 0.00 0.00 76 1011.9
20260903064012 63 84 0.0 2.0 0.00 0.00 0.00 76 1012.0
20260903063048 63 84 0.0 0.0 0.00 0.00 0.00 76 1012.2
20260903063006 63 84 0.0 2.0 0.00 0.00 0.00 76 1012.2
20260903062005 64 84 0.0 2.0 0.00 0.00 0.00 75 1012.2
20260903061551 64 85 0.0 0.0 0.00 0.00 0.00 75 1012.1
20260903060048 64 84 0.0 0.0 0.00 0.00 0.00 76 1012.2
20260903060006 64 84 0.0 3.0 0.00 0.00 0.00 76 1012.2
20260903055005 64 97 0.0 2.0 0.00 0.00 0.00 76 1012.3
20260903054549 64 97 0.0 0.0 0.00 0.00 0.00 75 1012.3
20260903054004 64 97 0.0 2.0 0.00 0.00 0.00 75 1012.3
20260903053049 64 96 0.0 2.0 0.00 0.00 0.00 75 1012.2
20260903052005 64 96 0.0 1.0 0.00 0.00 0.00 75 1012.3
20260903051550 64 96 0.0 0.0 0.00 0.00 0.00 76 1012.3
20260903051005 64 96 0.0 2.0 0.00 0.00 0.00 76 1012.3
20260903050058 64 96 0.0 2.0 0.00 0.00 0.00 75 1012.3
20260903050006 64 96 0.0 2.0 0.00 0.00 0.00 75 1012.3
20260903045004 64 90 0.0 1.0 0.00 0.00 0.00 75 1012.4
20260903044548 64 90 0.0 0.0 0.00 0.00 0.00 76 1012.5
20260903044005 64 90 0.0 2.0 0.00 0.00 0.00 76 1012.4
20260903043048 65 90 0.0 0.0 0.00 0.00 0.00 76 1012.2
20260903043004 65 90 0.0 0.0 0.00 0.00 0.00 76 1012.2
20260903041548 64 90 0.0 0.0 0.00 0.00 0.00 76 1012.1
20260903041004 64 90 0.0 2.0 0.00 0.00 0.00 76 1012.0
20260903040048 64 90 0.0 0.0 0.00 0.00 0.00 75 1012.0
20260903040008 64 90 0.0 2.0 0.00 0.00 0.00 75 1012.0
20260903035007 64 90 0.0 0.0 0.00 0.00 0.00 75 1012.0
20260903034548 64 90 0.0 0.0 0.00 0.00 0.00 75 1012.1
20260903034004 65 90 0.0 2.0 0.00 0.00 0.00 74 1012.1
20260903033050 65 90 0.0 0.0 0.00 0.00 0.00 75 1012.2
20260903033005 65 90 0.0 0.0 0.00 0.00 0.00 75 1012.2
20260903032012 65 90 0.0 1.0 0.00 0.00 0.00 74 1012.2
20260903031549 65 90 0.0 0.0 0.00 0.00 0.00 74 1012.1
20260903031006 64 90 0.0 2.0 0.00 0.00 0.00 75 1012.2
20260903030050 65 90 0.0 1.0 0.00 0.00 0.00 75 1012.1
20260903030012 65 90 0.0 1.0 0.00 0.00 0.00 75 1012.1
20260903025008 65 90 0.0 2.0 0.00 0.00 0.00 74 1012.0
20260903024548 65 90 0.0 0.0 0.00 0.00 0.00 74 1012.0
20260903024004 65 90 0.0 1.0 0.00 0.00 0.00 75 1012.0
20260903023054 65 90 0.0 0.0 0.00 0.00 0.00 74 1011.8
20260903023005 65 90 0.0 2.0 0.00 0.00 0.00 74 1011.8
20260903022004 66 90 0.0 2.0 0.00 0.00 0.00 73 1011.8
20260903021549 66 90 0.0 0.0 0.00 0.00 0.00 74 1011.8
20260903021012 66 90 0.0 2.0 0.00 0.00 0.00 73 1011.8
20260903020050 66 90 0.0 0.0 0.00 0.00 0.00 73 1011.8
20260903020004 66 90 0.0 0.0 0.00 0.00 0.00 73 1011.8
20260903015004 67 90 0.0 0.0 0.00 0.00 0.00 71 1011.6
20260903014548 67 90 0.0 0.0 0.00 0.00 0.00 71 1011.7
20260903014011 68 90 0.0 0.0 0.00 0.00 0.00 70 1011.6
20260903013048 68 90 0.0 0.0 0.00 0.00 0.00 70 1011.5
20260903013006 68 90 0.0 0.0 0.00 0.00 0.00 70 1011.5
20260903012004 69 90 0.0 0.0 0.00 0.00 0.00 68 1011.5
20260903011548 69 90 0.0 0.0 0.00 0.00 0.00 67 1011.4
20260903011011 70 90 0.0 0.0 0.00 0.00 0.00 67 1011.4
20260903010048 71 90 0.0 1.0 0.00 0.00 0.00 64 1011.3
20260903010004 71 90 0.0 1.0 0.00 0.00 0.00 64 1011.3
20260903005008 72 90 0.0 2.0 0.00 0.00 0.00 63 1011.1
20260903004549 72 90 0.0 1.0 0.00 0.00 0.00 61 1011.1
20260903004012 73 90 0.0 2.0 0.00 0.00 0.00 60 1011.1
20260903003049 74 71 0.0 2.0 0.00 0.00 0.00 59 1011.0
20260903003011 74 71 0.0 3.0 0.00 0.00 0.00 59 1011.0
20260903002004 75 68 1.0 5.0 0.00 0.00 0.00 57 1010.9
20260903001549 76 77 1.0 5.0 0.00 0.00 0.00 57 1010.8
20260903001006 76 83 0.0 2.0 0.00 0.00 0.00 57 1010.9
20260903000049 77 85 0.0 2.0 0.00 0.00 0.00 54 1010.8
20260903000005 77 85 0.0 3.0 0.00 0.00 0.00 54 1010.8
20260902234549 79 57 1.0 2.0 0.00 0.00 0.00 55 1010.8
20260902234005 79 39 0.0 3.0 0.00 0.00 0.00 53 1010.7
20260902233049 79 351 1.0 3.0 0.00 0.00 0.00 53 1010.7
20260902233007 79 351 1.0 3.0 0.00 0.00 0.00 53 1010.7
20260902232005 80 58 1.0 5.0 0.00 0.00 0.00 52 1010.5
20260902231548 81 40 1.0 3.0 0.00 0.00 0.00 50 1010.5
20260902231004 81 68 1.0 7.0 0.00 0.00 0.00 49 1010.4
20260902230049 82 20 1.0 3.0 0.00 0.00 0.00 49 1010.4
20260902230005 82 20 1.0 3.0 0.00 0.00 0.00 49 1010.4
20260902225008 82 9 1.0 10.0 0.00 0.00 0.00 50 1010.5
20260902224551 82 277 2.0 2.0 0.00 0.00 0.00 43 1010.3
20260902224004 82 250 7.0 10.0 0.00 0.00 0.00 47 1010.2
20260902223048 83 223 2.0 3.0 0.00 0.00 0.00 42 1010.2
20260902223004 83 223 2.0 3.0 0.00 0.00 0.00 42 1010.2
20260902222004 82 279 2.0 7.0 0.00 0.00 0.00 47 1010.2
20260902221549 82 249 1.0 2.0 0.00 0.00 0.00 43 1010.2
20260902221005 83 156 2.0 7.0 0.00 0.00 0.00 48 1010.2
20260902220049 82 249 3.0 6.0 0.00 0.00 0.00 46 1010.1
20260902220004 82 249 3.0 6.0 0.00 0.00 0.00 46 1010.1
20260902215007 81 225 6.0 12.0 0.00 0.00 0.00 44 1010.2
20260902214550 81 229 8.0 12.0 0.00 0.00 0.00 49 1010.2
20260902214007 82 231 9.0 12.0 0.00 0.00 0.00 47 1010.2
20260902213049 82 229 1.0 2.0 0.00 0.00 0.00 43 1010.3
20260902213007 82 229 1.0 6.0 0.00 0.00 0.00 43 1010.3
20260902212005 81 260 5.0 9.0 0.00 0.00 0.00 47 1010.4
20260902211548 82 257 6.0 9.0 0.00 0.00 0.00 49 1010.4
20260902211005 82 246 5.0 9.0 0.00 0.00 0.00 44 1010.3
20260902210049 81 256 3.0 7.0 0.00 0.00 0.00 46 1010.4
20260902210005 81 256 3.0 8.0 0.00 0.00 0.00 46 1010.4
20260902204554 82 275 5.0 5.0 0.00 0.00 0.00 48 1010.5
20260902203048 81 239 8.0 8.0 0.00 0.00 0.00 47 1010.6
20260902203011 81 239 8.0 10.0 0.00 0.00 0.00 47 1010.6